Overview Statistics Trail Chart Weather Telemetry Raw packets
 

This is the latest recevied weather packets stored in our database for station/object W0AKY-13. If no packets are shown the sender has not sent any weather packets the latest 10 day(s).

<< 43 44 45 46 47 48 49 >>
Time Temp. Humidity Pressure Rain* Wind** Luminosity Snow
1788296089 37.78° C 40% 1013.7 hPa 0 mm - 412 W/m² -
1788295783 37.78° C 41% 1013.7 hPa 0 mm - 423 W/m² -
1788295480 37.78° C 42% 1013.5 hPa 0 mm - 435 W/m² -
1788295179 37.78° C 40% 1013.6 hPa 0 mm - 444 W/m² -
1788294874 37.78° C 41% 1013.8 hPa 0 mm - 452 W/m² -
1788294570 37.78° C 41% 1013.6 hPa 0 mm - 460 W/m² -
1788294269 37.78° C 41% 1013.7 hPa 0 mm - 471 W/m² -
1788293966 37.78° C 41% 1013.8 hPa 0 mm - 482 W/m² -
1788293660 37.22° C 41% 1013.7 hPa 0 mm - 492 W/m² -
1788293354 37.22° C 43% 1013.7 hPa 0 mm - 499 W/m² -
1788293049 37.22° C 42% 1013.8 hPa 0 mm - 508 W/m² -
1788292748 36.67° C 41% 1014 hPa 0 mm - 516 W/m² -
1788292447 37.22° C 41% 1014 hPa 0 mm - 525 W/m² -
1788292143 37.78° C 40% 1013.9 hPa 0 mm - 525 W/m² -
1788291842 37.78° C 42% 1014.1 hPa 0 mm - 532 W/m² -
1788291541 37.78° C 42% 1014.3 hPa 0 mm - 539 W/m² -
1788291238 37.78° C 41% 1014.2 hPa 0 mm - 543 W/m² -
1788290938 37.22° C 42% 1014.1 hPa 0 mm - 551 W/m² -
1788290634 36.67° C 42% 1014.5 hPa 0 mm - 556 W/m² -
1788290330 36.67° C 43% 1014.3 hPa 0 mm - 562 W/m² -
1788290024 36.67° C 43% 1014.5 hPa 0 mm - 567 W/m² -
1788289721 36.11° C 44% 1014.2 hPa 0 mm - 571 W/m² -
1788289421 36.11° C 45% 1014.4 hPa 0 mm - 575 W/m² -
1788289119 36.11° C 44% 1014.2 hPa 0 mm - 578 W/m² -
1788288818 35.56° C 44% 1014.5 hPa 0 mm - 583 W/m² -

* Rain latest hour (hover to see other rain measurements)
** Current wind speed in m/s (hover to see current wind gust speed)